Regional Weather Roundup
Issued by NWS

Home | Current Version | Previous Version | Text Only | Print | Product List | Glossary On
Versions: 1 2 3 4 5 6 7 8 9 10 11 12 13 14 15 16 17 18 19 20 21 22 23 24 25 26 27 28 29 30 31 32 33 34 35 36 37 38 39 40 41 42 43 44 45 46 47 48 49 50
000
ASUS43 KLSX 071707
RWRMO

WEATHER SUMMARY FOR MISSOURI
NATIONAL WEATHER SERVICE SPRINGFIELD MO
1200 PM CDT TUE JUL 07 2015

NOTE: "FAIR" INDICATES FEW OR NO CLOUDS BELOW 12,000 FEET WITH NO
       SIGNIFICANT WEATHER AND/OR OBSTRUCTIONS TO VISIBILITY.
       CURRENT SKY AND/OR WEATHER CONDITIONS ARE NOT AVAILABLE FOR
       CHILLICOTHE AND FARMINGTON.

MOZ001>031-035>038-043-044-053-054-071800-
...NORTHERN AND WESTERN MISSOURI...

CITY           SKY/WX    TMP DP  RH WIND       PRES   REMARKS
KANSAS CTY INT CLOUDY    68  60  75 N10       30.08S HAZE
KANSAS C DTWN  PTSUNNY   72  60  66 NE10      30.07R
LEE`S SUMMIT   CLOUDY    68  59  73 N15       30.07S HAZE
ST JOSEPH      CLOUDY    69  59  70 MISG      30.10R
CHILLICOTHE      N/A     72  60  66 N10       30.08R
KIRKSVILLE     LGT RAIN  73  59  61 N13       30.07R

$$
MOZ066>068-077>081-088>096-101>105-071800-
...SOUTHWEST MISSOURI...

CITY           SKY/WX    TMP DP  RH WIND       PRES   REMARKS
SPRINGFIELD    CLOUDY    75  72  90 S7        29.99R
JOPLIN         FOG       65  64  97 N9        30.02R VSB 1

$$
MOZ032>034-039>042-045>050-055>058-069>072-071800-
...CENTRAL MISSOURI...

CITY           SKY/WX    TMP DP  RH WIND       PRES   REMARKS
COLUMBIA       LGT RAIN  66  63  90 N13       30.03R FOG
ROLLA          CLOUDY    70  68  93 N8        29.99R
SEDALIA        CLOUDY    66  61  84 N8        30.05S HAZE
WHITEMAN AFB   PTSUNNY   67  61  83 N12       30.03F FOG
WARRENSBURG    CLOUDY    68  59  73 N10       30.05S HAZE
OSAGE BEACH    CLOUDY    66  64  94 N6        30.01R

$$
MOZ051-052-059>065-071800-
...EAST CENTRAL MISSOURI...

CITY           SKY/WX    TMP DP  RH WIND       PRES   REMARKS
ST LOUIS INTL  CLOUDY    72  66  83 NW9       29.99R FOG
SPIRIT OF STL  DRIZZLE   69  68  96 N7        29.98R FOG
ST CHARLES     CLOUDY    69  66  90 NW8       29.98R FOG

$$
MOZ072>076-082>087-097>100-106>115-071800-
...SOUTH CENTRAL AND SOUTHEAST MISSOURI...

CITY           SKY/WX    TMP DP  RH WIND       PRES   REMARKS
CAPE GIRARDEAU LGT RAIN  78  75  90 SW8       29.98R
FARMINGTON     CLOUDY    75  73  94 S8        30.03R
POPLAR BLUFF   CLOUDY    82  74  76 SW14G23   29.97R
WEST PLAINS    RAIN      72  70  93 W7        30.02F FOG

$$



USA.gov is the U.S. government's official web portal to all federal, state and local government web resources and services.